Flag for U.S.A. Weather past 2 weeks in Marengo, Indiana, U.S.A.

Now
32 °F

Overcast.


Feels Like: 25 °F
Forecast: 23 / 40 °F
Wind: 8 mph from Northeast

Location: Bowling Green-Warren County Regional Airport

Current Time: Jan 28, 2015 at 4:57:44 AM

Latest Report: Jan 28, 2015 at 3:53 AM


Visibility: 10 mi

Pressure: 30.29 "Hg

Humidity: 73%

Dew point: 24 °F

Location of MarengoLocation

Historic Weather in Marengo — Graph

°F

Marengo temperature yesterday

Maximum temperature yesterday: 36 °F (at 1:53 PM)
Minimum temperature yesterday: 32 °F (at 1:01 AM)
Average temperature yesterday: 33 °F

Past Weeks' High & Low Weather Summary

 TemperatureHumidityPressure
High61 °F (Jan 19, 3:53 PM)93% (Jan 25, 11:53 PM)30.53 "Hg (Jan 25, 11:53 PM)
Low23 °F (Jan 16, 7:53 AM)28% (Jan 18, 3:53 PM)29.61 "Hg (Jan 25, 3:53 PM)
Average37 °F71%30.10 "Hg
* Reported Jan 13 3:53 AM — Jan 28 3:53 AM, Marengo, Weather by CustomWeather, © 2014

Note: Actual official high and low records may vary slightly from our data, if they occured in-between our weather recording intervals... More about our weather records

Advertising

Marengo weather history for previous 24 hours

 ConditionsComfort  
Time TempWeatherWind HumidityBarometerVisibility
3:53 AM
Jan 28
32 °FOvercast.8 mph73%30.29 "Hg10 mi
2:53 AM33 °FOvercast.6 mph75%30.28 "Hg9 mi
1:53 AM33 °FOvercast.3 mph78%30.27 "Hg8 mi
12:53 AM33 °FOvercast.5 mph78%30.26 "Hg8 mi
11:53 PM
Jan 27
33 °FOvercast.5 mph82%30.26 "Hg8 mi
10:53 PM33 °FMostly cloudy.3 mph85%30.25 "Hg8 mi
9:53 PM34 °FOvercast.5 mph82%30.24 "Hg9 mi
8:53 PM34 °FOvercast.3 mph82%30.24 "Hg9 mi
7:53 PM34 °FLight snow. Fog.5 mph85%30.22 "Hg6 mi
6:53 PM34 °FFog.5 mph85%30.20 "Hg6 mi
5:53 PM35 °FMostly cloudy.6 mph78%30.17 "Hg7 mi
4:53 PM35 °FOvercast.7 mph78%30.16 "Hg8 mi
3:53 PM35 °FMostly cloudy.6 mph82%30.14 "Hg10 mi
2:53 PM35 °FOvercast.6 mph82%30.11 "Hg10 mi
1:53 PM36 °FOvercast.No wind75%30.11 "Hg10 mi
12:53 PM35 °FMore clouds than sun.3 mph85%30.10 "Hg9 mi
11:53 AM35 °FOvercast.5 mph85%30.10 "Hg8 mi
10:53 AM34 °FFog.6 mph85%30.08 "Hg5 mi
9:53 AM33 °FFog.5 mph88%30.05 "Hg4 mi
9:01 AM33 °FFog.No wind88%30.01 "Hg3 mi
7:53 AM33 °FFog.No wind88%30.00 "Hg4 mi
7:02 AM32 °FIce fog.3 mph92%29.96 "Hg4 mi
6:53 AM32 °FIce fog.3 mph92%29.96 "Hg4 mi
6:02 AM32 °FIce fog.No wind92%29.93 "Hg2 mi
5:53 AM32 °FLight freezing rain. Ice fog.3 mph88%29.94 "Hg2 mi
4:53 AM32 °FIce fog.3 mph88%29.92 "Hg4 mi
Weather by CustomWeather, © 2014

See weather overviewHow to use our weather pages